Location: Cheching
(60.0667°N, 164.2167°W)
Time: 22:11:08
(UTC+00:00)

XW-2D - Pass Details

Date: 17 January 2021
Orbit: 505 x 525 km, 97.5° (Epoch: 07 March)

Event Time Altitude Azimuth Distance (km) Brightness Sun altitude
Rises 03:39:18 0° 164° (SSE) 2,616 ? -7.6°
Reaches altitude 10° 03:41:23 10° 164° (SSE) 1,737 ? -7.8°
Maximum altitude 03:45:08 85° 255° (WSW) 526 ? -8.2°
Drops below altitude 10° 03:48:57 10° 343° (NNW) 1,763 ? -8.7°
Sets 03:51:04 0° 344° (NNW) 2,659 ? -8.9°
